Weather History for KCPW - February, 2013

Change the Weather History Date:

Wednesday, February 27, 2013

  Actual Average (KALS) Record (KALS)
Temperature  
Mean Temperature 5 °F 28 °F  
Max Temperature 14 °F 44 °F 60 °F (2006)
Min Temperature -4 °F 11 °F -17 °F (1984)
Degree Days  
Heating Degree Days 60 37  
Month to date heating degree days 1144  
Since 1 July heating degree days 6291  
Cooling Degree Days 0 0  
Month to date cooling degree days 0  
Year to date cooling degree days 0  
Moisture  
Dew Point -5 °F    
Average Humidity 64    
Maximum Humidity 85    
Minimum Humidity 43    
Precipitation  
Precipitation 0.00 in 0.01 in 0.23 in (1968)
Month to date precipitation 0.25  
Year to date precipitation 0.51  
Snow  
Snow 0.00 in 0.20 in 2.80 in (1968)
Month to date snowfall 3.7  
Since 1 July snowfall 18.0  
Snow Depth -    
Sea Level Pressure  
Sea Level Pressure 30.05 in    
Wind  
Wind Speed 16 mph (WSW)    
Max Wind Speed 25 mph    
Max Gust Speed 31 mph    
Visibility 10 miles    
Events      
T = Trace of Precipitation, MM = Missing Value Source: NWS Daily Summary

Daily Weather History Graph

Daily Weather History Graph

Search for Another Location

Airport or City:

Trip Planner

Search our weather history database for the weather conditions in past years. The results will help you decide how hot, cold, wet, or windy it might be!

Date:

Astronomy

Feb. 27, 2013 Rise Set
Actual Time 6:40 AM MST 5:59 PM MST
Civil Twilight 6:14 AM MST 6:25 PM MST
Nautical Twilight 5:44 AM MST 6:56 PM MST
Astronomical Twilight 5:14 AM MST 7:26 PM MST
Moon 8:19 PM MST (2/27) 7:21 AM MST (2/27)
Length of Visible Light 12h 11m
Length of Day
11h 18m
Waning Gibbous, 96% of the Moon is Illuminated
Feb 27
Waning Gibbous
Mar 4
Last Quarter
Mar 11
New
Mar 19
First Quarter
Mar 27
Full

Hourly Weather History & Observations

Time (MST) Temp. Windchill Dew Point Humidity Pressure Visibility Wind Dir Wind Speed Gust Speed Precip Events Conditions
12:08 AM -2.2 °F -27.1 °F -7.6 °F 78% 29.90 in 10.0 mi NE 25.3 mph 31.1 mph N/A   Scattered Clouds
12:28 AM -0.4 °F -24.3 °F -7.6 °F 72% 29.91 in 10.0 mi NE 24.2 mph 27.6 mph N/A   Scattered Clouds
12:48 AM -2.2 °F -26.7 °F -7.6 °F 78% 29.91 in 10.0 mi NE 24.2 mph 29.9 mph N/A   Scattered Clouds
1:07 AM -0.4 °F -24.7 °F -7.6 °F 72% 29.91 in 10.0 mi NE 25.3 mph - N/A   Scattered Clouds
1:27 AM -0.4 °F -24.3 °F -7.6 °F 72% 29.92 in 10.0 mi NE 24.2 mph 29.9 mph N/A   Scattered Clouds
1:48 AM -2.2 °F -25.7 °F -7.6 °F 78% 29.93 in 10.0 mi NE 21.9 mph - N/A   Scattered Clouds
2:08 AM -4.0 °F -27.0 °F -9.4 °F 78% 29.94 in 10.0 mi NE 19.6 mph 28.8 mph N/A   Clear
2:27 AM -4.0 °F -27.0 °F -9.4 °F 78% 29.93 in 10.0 mi NE 19.6 mph - N/A   Scattered Clouds
2:47 AM -4.0 °F -25.8 °F -9.4 °F 78% 29.94 in 10.0 mi NE 17.3 mph - N/A   Scattered Clouds
3:07 AM -4.0 °F -25.8 °F -9.4 °F 78% 29.94 in 10.0 mi NE 17.3 mph - N/A   Scattered Clouds
3:27 AM -2.2 °F -20.7 °F -9.4 °F 71% 29.94 in 10.0 mi NE 12.7 mph - N/A   Scattered Clouds
3:48 AM -0.4 °F -21.2 °F -9.4 °F 66% 29.94 in 10.0 mi NNE 17.3 mph - N/A   Scattered Clouds
4:08 AM -0.4 °F -19.9 °F -9.4 °F 66% 29.95 in 10.0 mi NNE 15.0 mph - N/A   Scattered Clouds
4:27 AM -0.4 °F -18.4 °F -9.4 °F 66% 29.96 in 10.0 mi NNE 12.7 mph - N/A   Scattered Clouds
4:48 AM 1.4 °F -17.6 °F -11.2 °F 56% 29.97 in 10.0 mi NNE 15.0 mph - N/A   Scattered Clouds
5:08 AM 1.4 °F -17.6 °F -11.2 °F 56% 29.98 in 10.0 mi NE 15.0 mph - N/A   Scattered Clouds
5:28 AM -0.4 °F -19.9 °F -9.4 °F 66% 29.98 in 10.0 mi NE 15.0 mph - N/A   Scattered Clouds
5:48 AM -0.4 °F -19.9 °F -9.4 °F 66% 29.99 in 10.0 mi NE 15.0 mph - N/A   Scattered Clouds
6:08 AM -0.4 °F -17.6 °F -11.2 °F 60% 29.99 in 10.0 mi NNE 11.5 mph - N/A   Scattered Clouds
6:28 AM -0.4 °F -15.7 °F -11.2 °F 60% 30.00 in 10.0 mi NNE 9.2 mph - N/A   Scattered Clouds
6:48 AM 1.4 °F -12.5 °F -13.0 °F 51% 30.01 in 10.0 mi NE 8.1 mph - N/A   Mostly Cloudy
7:07 AM -0.4 °F -15.7 °F -13.0 °F 55% 30.01 in 10.0 mi NNE 9.2 mph - N/A   Scattered Clouds
7:28 AM 1.4 °F -9.9 °F -13.0 °F 51% 30.02 in 10.0 mi NNE 5.8 mph - N/A   Scattered Clouds
7:48 AM 3.2 °F -7.8 °F -13.0 °F 47% 30.03 in 10.0 mi North 5.8 mph - N/A   Scattered Clouds
8:08 AM 5.0 °F -2.1 °F -13.0 °F 43% 30.04 in 10.0 mi North 3.5 mph - N/A   Clear
8:28 AM 6.8 °F -2.0 °F -9.4 °F 48% 30.05 in 10.0 mi NW 4.6 mph - N/A   Clear
8:48 AM 6.8 °F - -9.4 °F 48% 30.06 in 10.0 mi Calm Calm - N/A   Clear
9:08 AM 8.6 °F - -9.4 °F 44% 30.07 in 10.0 mi Calm Calm - N/A   Clear
9:28 AM 8.6 °F 2.0 °F -5.8 °F 52% 30.07 in 10.0 mi South 3.5 mph - N/A   Clear
9:48 AM 8.6 °F -2.6 °F -5.8 °F 52% 30.07 in 10.0 mi SW 6.9 mph - N/A   Clear
10:08 AM 10.4 °F -0.4 °F -4.0 °F 52% 30.08 in 10.0 mi SW 6.9 mph - N/A   Clear
10:28 AM 10.4 °F 2.2 °F -4.0 °F 52% 30.08 in 10.0 mi SSW 4.6 mph 17.3 mph N/A   Clear
10:48 AM 10.4 °F -4.8 °F -5.8 °F 48% 30.08 in 10.0 mi SSW 12.7 mph - N/A   Clear
11:08 AM 12.2 °F -0.2 °F -5.8 °F 45% 30.09 in 10.0 mi SSW 9.2 mph 19.6 mph N/A   Clear
11:28 AM 10.4 °F -0.4 °F -5.8 °F 48% 30.09 in 10.0 mi SSW 6.9 mph - N/A   Scattered Clouds
11:48 AM 12.2 °F 1.7 °F -4.0 °F 48% 30.09 in 10.0 mi West 6.9 mph - N/A   Scattered Clouds
12:07 PM 12.2 °F 1.7 °F -4.0 °F 48% 30.09 in 10.0 mi West 6.9 mph - N/A   Clear
12:28 PM 12.2 °F 1.7 °F -2.2 °F 53% 30.09 in 10.0 mi West 6.9 mph 16.1 mph N/A   Clear
12:47 PM 12.2 °F 1.7 °F -4.0 °F 48% 30.08 in 10.0 mi SW 6.9 mph - N/A   Clear
1:07 PM 12.2 °F -0.2 °F -2.2 °F 53% 30.08 in 10.0 mi SSW 9.2 mph 18.4 mph N/A   Clear
1:27 PM 14.0 °F 0.5 °F -0.4 °F 53% 30.07 in 10.0 mi WSW 11.5 mph 16.1 mph N/A   Clear
1:49 PM 14.0 °F -0.2 °F -0.4 °F 53% 30.07 in 10.0 mi WSW 12.7 mph 20.7 mph N/A   Clear
2:08 PM 14.0 °F -0.8 °F -2.2 °F 49% 30.07 in 10.0 mi WSW 13.8 mph 24.2 mph N/A   Clear
2:27 PM 14.0 °F -1.4 °F -0.4 °F 53% 30.07 in 10.0 mi WSW 15.0 mph 24.2 mph N/A   Clear
2:47 PM 12.2 °F -2.5 °F -0.4 °F 57% 30.07 in 10.0 mi WSW 12.7 mph - N/A   Clear
3:07 PM 12.2 °F -4.3 °F -0.4 °F 57% 30.07 in 10.0 mi WSW 16.1 mph 20.7 mph N/A   Clear
3:28 PM 12.2 °F -4.8 °F -0.4 °F 57% 30.07 in 10.0 mi WSW 17.3 mph 23.0 mph N/A   Clear
3:48 PM 12.2 °F -5.3 °F -2.2 °F 53% 30.07 in 10.0 mi WSW 18.4 mph 25.3 mph N/A   Clear
4:07 PM 12.2 °F -3.7 °F -2.2 °F 53% 30.07 in 10.0 mi WSW 15.0 mph 25.3 mph N/A   Clear
4:28 PM 12.2 °F -3.1 °F -2.2 °F 53% 30.08 in 10.0 mi WSW 13.8 mph 23.0 mph N/A   Clear
4:47 PM 12.2 °F -4.3 °F -0.4 °F 57% 30.08 in 10.0 mi SW 16.1 mph 23.0 mph N/A   Clear
5:07 PM 10.4 °F -8.6 °F -2.2 °F 57% 30.08 in 10.0 mi SW 20.7 mph 25.3 mph N/A   Clear
5:26 PM 10.4 °F -7.2 °F -4.0 °F 52% 30.08 in 10.0 mi WSW 17.3 mph 20.7 mph N/A   Clear
5:46 PM 8.6 °F -9.5 °F -4.0 °F 57% 30.09 in 10.0 mi SW 17.3 mph 26.5 mph N/A   Clear
6:07 PM 8.6 °F -10.0 °F -2.2 °F 62% 30.09 in 10.0 mi SW 18.4 mph 25.3 mph N/A   Clear
6:26 PM 6.8 °F -11.3 °F -2.2 °F 67% 30.10 in 10.0 mi SW 16.1 mph - N/A   Clear
6:47 PM 5.0 °F -14.2 °F -0.4 °F 78% 30.10 in 10.0 mi SW 17.3 mph - N/A   Clear
7:26 PM 5.0 °F -12.3 °F -0.4 °F 78% 30.11 in 10.0 mi SSW 13.8 mph - N/A   Clear
7:46 PM 5.0 °F -12.3 °F -0.4 °F 78% 30.12 in 10.0 mi SW 13.8 mph - N/A   Clear
8:07 PM 5.0 °F -12.3 °F -0.4 °F 78% 30.12 in 10.0 mi SW 13.8 mph - N/A   Clear
8:26 PM 5.0 °F -12.3 °F -0.4 °F 78% 30.12 in 10.0 mi SW 13.8 mph - N/A   Clear
8:46 PM 3.2 °F -12.2 °F -0.4 °F 85% 30.12 in 10.0 mi WSW 10.4 mph - N/A   Clear
9:07 PM 3.2 °F -13.1 °F -0.4 °F 85% 30.12 in 10.0 mi SW 11.5 mph - N/A   Clear
9:27 PM 3.2 °F -14.6 °F -0.4 °F 85% 30.12 in 10.0 mi SW 13.8 mph - N/A   Clear
9:47 PM 3.2 °F -13.9 °F -0.4 °F 85% 30.12 in 10.0 mi WSW 12.7 mph - N/A   Scattered Clouds
10:05 PM 3.2 °F -12.2 °F -0.4 °F 85% 30.12 in 10.0 mi SW 10.4 mph - N/A   Scattered Clouds
10:27 PM 3.2 °F -12.2 °F -0.4 °F 85% 30.12 in 10.0 mi WSW 10.4 mph - N/A   Scattered Clouds
10:46 PM 3.2 °F -9.1 °F -0.4 °F 85% 30.12 in 10.0 mi SW 6.9 mph - N/A   Scattered Clouds
11:07 PM 3.2 °F -9.1 °F -0.4 °F 85% 30.13 in 10.0 mi SW 6.9 mph - N/A   Mostly Cloudy
11:26 PM 3.2 °F -9.1 °F -0.4 °F 85% 30.12 in 10.0 mi SSW 6.9 mph - N/A   Scattered Clouds
11:47 PM 3.2 °F -11.3 °F -0.4 °F 85% 30.12 in 10.0 mi SW 9.2 mph - N/A   Scattered Clouds